Location: Kings Park
(40.8862°N, 73.2573°W)
Time: 09:01:58
(UTC+00:00)

Cosmos 44 - Pass Details

Date: 29 October 2020
Orbit: 578 x 784 km, 65.1° (Epoch: 23 November)

Event Time Altitude Azimuth Distance (km) Brightness Sun altitude
Rises 22:14:10 0° 225° (SW) 2,844 7.6 -4.8°
Reaches altitude 10° 22:16:25 10° 231° (SW) 1,969 6.9 -5.3°
Maximum altitude 22:20:44 49° 307° (NW) 826 4.1 -6.1°
Drops below altitude 10° 22:25:20 10° 23° (NNE) 2,101 5.5 -6.9°
Sets 22:27:49 0° 28° (NNE) 3,056 6.2 -7.4°
